User: anonymous   Login
Location: Brede
(50.9167°N, 0.6000°E)
Time: 22:54:49
(UTC+00:00)
Language:

Tiros 1 despin weight - Orbit

View from above orbital plane
View from above orbital plane
View from above satellite
View from above satellite

Ground track
Ground track

The orbit data is extracted from the following two-line orbital elements,

1   115U 60002D   20330.14880538  .00000061  00000-0  34224-4 0  9996
2   115  48.1661 221.4760 0034699 237.6183 122.1369 14.83650718236837
Epoch (UTC): 25 November 2020 03:34:16
Eccentricity: 0.0034699
inclination: 48.1661°
perigee height: 593 km
apogee height: 642 km
right ascension of ascending node: 221.4760°
argument of perigee: 237.6183°
revolutions per day: 14.83650718
mean anomaly at epoch: 122.1369°
orbit number at epoch: 23683

The dashed part of the orbit path shows where the satellite is in the earth's shadow,  

DLR